Location: Unspecified
(0.0000°N, 0.0000°E)
Time: 03:47:49
(UTC+00:00)

GONETS D1M 1 - Pass Details

Date: 23 May 2026
Orbit: 1435 x 1448 km, 82.5° (Epoch: 9 June)

Event Time Altitude Azimuth Distance (km) Brightness Sun altitude
Rises 03:44:55 0° 144° (SE) 4,537 9.4 -30.6°
Reaches altitude 10° 03:49:58 10° 119° (ESE) 3,559 9.1 -29.5°
Maximum altitude 03:53:31 13° 93° (E) 3,314 9.3 -28.7°
Drops below altitude 10° 03:57:03 10° 68° (ENE) 3,557 9.7 -27.8°
Sets 04:02:01 0° 43° (NE) 4,532 10.3 -26.7°
